Temp
-21 -20 -20 -20 -20 -21 -22 -22 -22 -22 -23 -24 -23 -23 -22 -21 -21 -21 -20 -20 -21 -21 -21 -21 -21 -21 -21 -21 -21 -21 -21 -21 -21 -21 -20 -20 -20 -20 -19 -19 -19 -19 -18 -18 -18 -18 -17 -17 -17 -17 -17 -17 -17 -17
-22 -22 -22 -22 -22 -23 -23 -23 -23 -23 -24 -24 -24 -23 -23 -22 -22 -21 -21 -21 -21 -21 -21 -21 -21 -21 -21 -21 -21 -21 -21 -21 -21 -20 -20 -20 -20 -19 -19 -19 -19 -19 -19 -19 -18 -18 -18 -17 -17 -17 -17 -17 -17 -17
-23 -23 -23 -24 -24 -24 -23 -23 -23 -24 -24 -24 -24 -24 -24 -23 -22 -22 -21 -21 -21 -22 -21 -22 -21 -21 -21 -21 -21 -21 -21 -21 -21 -20 -20 -20 -20 -20 -20 -19 -19 -19 -19 -19 -19 -18 -18 -18 -18 -18 -17 -17 -17 -17
-23 -24 -24 -24 -24 -24 -24 -24 -25 -25 -25 -24 -24 -24 -24 -23 -23 -23 -22 -21 -21 -22 -22 -22 -21 -22 -22 -21 -21 -21 -21 -21 -21 -21 -20 -20 -20 -20 -20 -20 -20 -19 -19 -19 -19 -19 -19 -19 -18 -18 -18 -18 -18 -18
-23 -25 -24 -24 -25 -25 -25 -25 -25 -25 -25 -25 -24 -24 -24 -23 -23 -23 -22 -22 -21 -21 -22 -22 -22 -22 -22 -22 -21 -21 -21 -21 -21 -21 -21 -20 -20 -20 -20 -20 -20 -19 -19 -19 -20 -19 -19 -19 -18 -18 -18 -18 -18 -18
-26 -25 -26 -25 -25 -26 -26 -26 -25 -25 -25 -25 -24 -24 -23 -23 -22 -22 -22 -22 -21 -21 -21 -22 -22 -22 -22 -22 -21 -21 -21 -21 -20 -21 -20 -20 -20 -20 -20 -20 -20 -19 -19 -19 -19 -19 -19 -19 -19 -19 -18 -18 -18 -18
-27 -26 -26 -26 -26 -26 -26 -26 -26 -25 -25 -25 -25 -24 -23 -22 -21 -21 -21 -21 -21 -21 -22 -22 -22 -22 -22 -22 -22 -21 -21 -21 -20 -20 -20 -20 -20 -20 -20 -19 -20 -20 -19 -19 -19 -19 -19 -19 -19 -19 -19 -18 -18 -18
-26 -26 -27 -27 -27 -27 -27 -26 -26 -25 -25 -25 -25 -23 -22 -21 -20 -20 -20 -21 -21 -22 -22 -23 -23 -22 -22 -22 -21 -21 -21 -21 -21 -21 -21 -20 -20 -20 -20 -20 -20 -20 -19 -20 -19 -19 -19 -19 -19 -19 -19 -18 -18 -18
-27 -27 -27 -27 -27 -27 -26 -26 -26 -26 -25 -25 -24 -23 -22 -22 -22 -22 -22 -23 -24 -24 -24 -23 -23 -22 -22 -21 -21 -21 -21 -21 -21 -21 -21 -20 -20 -20 -20 -20 -19 -19 -19 -19 -19 -19 -19 -19 -19 -19 -18 -18 -18 -18
-28 -28 -28 -27 -27 -27 -27 -27 -26 -26 -25 -25 -25 -24 -24 -24 -25 -25 -26 -26 -26 -25 -24 -23 -22 -22 -22 -22 -22 -22 -21 -21 -21 -21 -21 -21 -20 -20 -20 -20 -20 -19 -19 -19 -19 -19 -19 -19 -19 -19 -19 -18 -18 -18
-30 -28 -28 -28 -27 -27 -27 -27 -26 -26 -25 -25 -25 -25 -25 -26 -26 -26 -25 -25 -24 -24 -24 -23 -22 -22 -22 -22 -22 -22 -21 -21 -21 -21 -21 -20 -20 -20 -20 -20 -20 -20 -19 -19 -20 -20 -19 -19 -19 -19 -19 -18 -18 -18
-30 -29 -29 -29 -28 -28 -27 -27 -27 -26 -25 -25 -25 -25 -25 -25 -25 -25 -24 -24 -24 -23 -23 -23 -22 -22 -22 -22 -22 -22 -22 -21 -21 -21 -21 -20 -20 -20 -20 -20 -20 -20 -20 -20 -20 -20 -20 -19 -19 -19 -19 -19 -18 -18
-30 -30 -29 -29 -29 -28 -28 -27 -27 -26 -26 -25 -25 -25 -25 -24 -24 -24 -24 -23 -23 -23 -23 -22 -23 -22 -22 -22 -22 -22 -22 -21 -21 -21 -21 -21 -20 -20 -20 -20 -20 -20 -20 -20 -20 -20 -20 -20 -19 -19 -19 -19 -19 -19
-30 -30 -30 -29 -29 -29 -28 -27 -27 -27 -26 -26 -25 -25 -25 -24 -24 -24 -23 -23 -23 -23 -23 -23 -22 -22 -22 -22 -22 -22 -22 -21 -21 -21 -21 -21 -20 -20 -20 -21 -21 -21 -21 -20 -20 -20 -20 -20 -20 -20 -20 -20 -19 -19
-31 -31 -30 -29 -29 -29 -28 -28 -27 -27 -27 -26 -26 -25 -25 -24 -24 -24 -24 -23 -23 -23 -23 -22 -22 -22 -22 -22 -22 -22 -22 -21 -21 -21 -21 -21 -21 -21 -21 -21 -21 -21 -21 -21 -20 -20 -20 -20 -20 -20 -20 -19 -19 -19
-31 -30 -30 -30 -29 -29 -28 -28 -28 -27 -27 -27 -26 -25 -25 -25 -24 -24 -24 -23 -23 -23 -23 -22 -22 -22 -22 -22 -22 -22 -22 -22 -21 -21 -21 -21 -21 -21 -21 -21 -21 -21 -20 -20 -20 -20 -20 -20 -20 -19 -19 -19 -19 -19
-30 -30 -30 -30 -30 -29 -29 -28 -28 -27 -27 -27 -26 -26 -25 -25 -25 -24 -24 -24 -23 -23 -23 -23 -23 -22 -22 -22 -22 -22 -22 -22 -22 -22 -21 -21 -21 -21 -21 -21 -21 -20 -21 -20 -20 -20 -20 -20 -19 -19 -19 -19 -19 -19
-31 -30 -30 -30 -30 -29 -29 -28 -28 -28 -27 -27 -26 -26 -25 -25 -24 -24 -24 -24 -24 -23 -23 -23 -22 -22 -22 -23 -22 -22 -22 -22 -22 -22 -22 -22 -22 -21 -21 -21 -21 -21 -21 -21 -20 -20 -20 -20 -20 -20 -19 -19 -19 -19
-30 -30 -31 -30 -30 -29 -29 -29 -29 -28 -28 -27 -26 -26 -25 -25 -25 -24 -24 -24 -24 -23 -23 -23 -22 -23 -23 -23 -22 -22 -22 -22 -22 -22 -21 -21 -21 -21 -21 -21 -21 -21 -21 -21 -21 -21 -20 -20 -20 -20 -20 -20 -20 -20
-30 -31 -30 -30 -30 -30 -29 -29 -29 -29 -28 -28 -27 -26 -25 -25 -25 -24 -24 -24 -24 -23 -23 -22 -23 -23 -23 -23 -22 -22 -22 -22 -22 -22 -22 -21 -21 -21 -21 -21 -21 -20 -20 -20 -20 -20 -20 -20 -20 -20 -20 -20 -20 -20
-31 -30 -30 -30 -30 -30 -30 -29 -29 -29 -29 -28 -27 -26 -26 -25 -25 -25 -24 -24 -23 -23 -23 -23 -23 -23 -23 -23 -22 -22 -22 -22 -22 -22 -21 -21 -21 -21 -21 -21 -20 -20 -20 -20 -20 -20 -20 -20 -20 -20 -20 -20 -20 -20
-31 -30 -30 -30 -30 -30 -30 -29 -29 -29 -29 -28 -28 -27 -26 -26 -25 -25 -25 -24 -24 -23 -23 -23 -23 -23 -22 -22 -22 -22 -22 -22 -21 -22 -21 -21 -21 -21 -21 -21 -21 -21 -21 -21 -21 -21 -20 -20 -20 -20 -21 -21 -21 -21
-31 -31 -31 -30 -30 -30 -30 -30 -29 -29 -29 -28 -28 -27 -26 -26 -25 -25 -25 -25 -25 -24 -23 -23 -23 -23 -23 -22 -22 -22 -22 -22 -22 -22 -22 -22 -22 -22 -22 -21 -21 -21 -21 -21 -21 -21 -21 -21 -21 -21 -21 -21 -21 -21
-31 -31 -31 -30 -30 -30 -30 -30 -30 -29 -29 -28 -28 -28 -27 -26 -25 -25 -25 -25 -25 -25 -24 -24 -24 -23 -23 -23 -22 -22 -22 -22 -22 -22 -22 -22 -22 -22 -22 -21 -21 -21 -21 -21 -20 -20 -20 -20 -20 -20 -20 -20 -20 -20
-31 -31 -31 -30 -30 -30 -30 -30 -30 -30 -29 -29 -28 -28 -27 -26 -26 -25 -25 -25 -25 -24 -24 -24 -24 -24 -24 -23 -23 -23 -23 -22 -22 -22 -22 -22 -22 -22 -22 -22 -21 -21 -21 -21 -21 -21 -21 -21 -21 -21 -20 -20 -20 -20
-31 -31 -31 -31 -31 -31 -30 -30 -30 -30 -30 -29 -28 -28 -27 -27 -26 -26 -25 -24 -24 -24 -24 -24 -24 -24 -24 -23 -23 -23 -23 -23 -23 -22 -22 -22 -22 -22 -22 -22 -21 -21 -21 -21 -21 -21 -21 -21 -22 -22 -22 -22 -21 -21
-31 -31 -31 -31 -31 -31 -31 -31 -31 -30 -30 -29 -29 -28 -27 -27 -26 -26 -25 -25 -25 -24 -24 -24 -24 -23 -23 -23 -23 -23 -23 -23 -23 -22 -22 -22 -22 -22 -22 -22 -22 -21 -21 -21 -22 -22 -22 -22 -22 -22 -22 -22 -22 -22
-31 -31 -31 -31 -31 -31 -31 -31 -31 -31 -30 -30 -29 -28 -28 -27 -27 -26 -25 -25 -25 -25 -24 -24 -24 -23 -23 -23 -23 -23 -23 -23 -23 -23 -22 -22 -22 -22 -22 -22 -22 -22 -22 -22 -23 -23 -23 -23 -23 -23 -22 -22 -23 -22
-31 -32 -32 -32 -32 -32 -31 -31 -31 -31 -30 -30 -29 -28 -28 -27 -27 -26 -26 -25 -25 -25 -24 -24 -24 -24 -24 -24 -24 -23 -23 -23 -23 -23 -23 -23 -22 -22 -22 -22 -22 -23 -23 -23 -23 -23 -23 -23 -23 -23 -23 -23 -23 -23
-32 -32 -32 -32 -32 -32 -32 -31 -31 -30 -30 -29 -28 -28 -27 -27 -27 -26 -26 -26 -25 -25 -25 -24 -24 -24 -24 -24 -23 -23 -23 -23 -23 -23 -23 -23 -23 -23 -23 -23 -23 -23 -23 -23 -23 -23 -23 -23 -23 -23 -23 -23 -23 -23
-33 -33 -33 -33 -33 -33 -32 -32 -31 -30 -30 -29 -28 -27 -27 -27 -27 -26 -26 -26 -25 -25 -25 -24 -24 -24 -24 -24 -24 -24 -24 -24 -24 -24 -24 -24 -24 -24 -24 -24 -24 -24 -24 -24 -23 -23 -23 -23 -23 -23 -24 -25 -26 -27
-34 -34 -34 -34 -34 -33 -32 -31 -30 -30 -29 -28 -28 -27 -27 -27 -27 -26 -27 -26 -26 -25 -25 -25 -24 -24 -24 -24 -24 -24 -24 -24 -24 -24 -24 -24 -24 -24 -24 -24 -24 -24 -24 -23 -23 -23 -23 -25 -26 -27 -27 -27 -28 -28
-35 -35 -35 -34 -33 -33 -33 -31 -30 -29 -29 -28 -28 -27 -27 -27 -26 -27 -26 -26 -26 -25 -25 -25 -25 -25 -25 -24 -24 -24 -24 -24 -24 -24 -24 -24 -24 -24 -25 -24 -24 -24 -24 -24 -25 -27 -27 -27 -27 -28 -29 -29 -29 -29
Height
5603 5597 5592 5588 5584 5579 5576 5574 5571 5568 5566 5562 5559 5558 5557 5556 5555 5554 5554 5555 5557 5559 5560 5563 5566 5568 5569 5571 5571 5572 5574 5575 5576 5577 5579 5580 5582 5584 5586 5588 5590 5592 5594 5596 5598 5599 5602 5603 5605 5607 5609 5609 5611 5612
5591 5584 5580 5577 5572 5569 5567 5565 5563 5560 5558 5556 5553 5550 5548 5547 5547 5547 5548 5548 5550 5553 5556 5557 5561 5564 5567 5569 5571 5572 5574 5575 5576 5577 5577 5578 5580 5582 5583 5585 5587 5590 5591 5592 5595 5596 5597 5598 5601 5602 5604 5606 5608 5610
5582 5574 5568 5566 5563 5561 5558 5557 5554 5552 5550 5548 5545 5543 5540 5538 5538 5539 5540 5541 5543 5546 5549 5553 5556 5559 5562 5566 5568 5570 5572 5573 5574 5575 5576 5577 5578 5579 5581 5582 5584 5585 5587 5588 5590 5592 5593 5594 5596 5598 5600 5602 5604 5606
5575 5565 5559 5555 5553 5551 5549 5548 5546 5544 5542 5539 5537 5534 5531 5529 5528 5528 5530 5531 5534 5537 5540 5547 5550 5554 5558 5562 5565 5567 5569 5570 5572 5573 5574 5575 5576 5577 5578 5580 5581 5582 5584 5584 5585 5587 5589 5590 5591 5593 5596 5598 5600 5602
5568 5557 5550 5547 5543 5541 5541 5540 5538 5535 5533 5530 5528 5524 5521 5519 5518 5519 5520 5522 5524 5529 5532 5538 5544 5548 5553 5557 5561 5563 5565 5567 5569 5570 5571 5573 5573 5575 5575 5577 5577 5579 5580 5581 5581 5583 5584 5585 5586 5588 5590 5592 5595 5598
5555 5548 5541 5537 5535 5535 5533 5531 5530 5527 5525 5522 5518 5514 5510 5508 5507 5508 5510 5513 5515 5519 5523 5529 5537 5542 5548 5552 5555 5558 5561 5563 5565 5566 5568 5569 5568 5569 5572 5573 5573 5573 5574 5575 5575 5578 5580 5580 5582 5584 5585 5587 5590 5592
5548 5540 5532 5530 5527 5526 5525 5525 5522 5519 5517 5513 5508 5503 5499 5496 5495 5497 5500 5503 5505 5509 5514 5520 5529 5537 5543 5547 5552 5554 5556 5558 5561 5562 5563 5564 5564 5561 5565 5569 5567 5566 5568 5569 5570 5573 5575 5576 5577 5579 5581 5582 5584 5587
5538 5529 5525 5521 5520 5519 5519 5517 5515 5513 5509 5505 5499 5494 5489 5486 5484 5485 5487 5490 5495 5501 5506 5514 5523 5533 5538 5544 5547 5549 5551 5553 5556 5557 5558 5557 5558 5557 5560 5561 5558 5559 5561 5562 5564 5566 5568 5570 5571 5573 5575 5577 5579 5582
5528 5522 5518 5515 5512 5511 5511 5510 5510 5507 5504 5499 5492 5486 5481 5477 5474 5473 5475 5479 5486 5496 5502 5512 5522 5530 5534 5538 5541 5544 5546 5548 5550 5551 5551 5551 5552 5552 5553 5552 5552 5553 5555 5557 5558 5560 5562 5563 5565 5567 5569 5571 5573 5576
5518 5514 5511 5509 5507 5505 5505 5505 5505 5503 5500 5495 5490 5485 5480 5475 5473 5474 5477 5484 5491 5498 5506 5515 5521 5527 5532 5534 5537 5540 5541 5543 5544 5546 5544 5545 5547 5547 5547 5546 5546 5546 5547 5550 5552 5553 5555 5557 5558 5561 5563 5566 5568 5570
5508 5506 5504 5502 5502 5500 5499 5499 5499 5499 5498 5494 5492 5490 5486 5484 5485 5487 5490 5493 5498 5504 5509 5515 5521 5525 5529 5531 5533 5535 5536 5537 5539 5541 5540 5541 5541 5541 5540 5540 5540 5540 5540 5542 5544 5546 5548 5550 5552 5555 5557 5559 5562 5565
5498 5497 5496 5495 5496 5493 5493 5494 5494 5494 5495 5493 5492 5493 5492 5491 5491 5493 5495 5499 5503 5508 5512 5516 5520 5523 5526 5528 5529 5530 5531 5532 5534 5535 5535 5536 5536 5535 5535 5534 5534 5535 5535 5537 5538 5539 5541 5544 5546 5548 5551 5553 5556 5559
5489 5488 5487 5488 5488 5487 5487 5489 5489 5489 5491 5490 5490 5492 5493 5494 5494 5496 5498 5502 5506 5509 5513 5516 5520 5522 5524 5525 5525 5526 5527 5529 5530 5531 5532 5532 5532 5530 5529 5528 5528 5529 5530 5531 5533 5534 5536 5538 5541 5543 5545 5548 5551 5553
5478 5479 5479 5480 5481 5480 5481 5483 5483 5484 5486 5486 5487 5489 5491 5492 5495 5497 5500 5503 5506 5509 5512 5515 5518 5520 5522 5523 5523 5523 5524 5526 5527 5528 5529 5529 5528 5527 5525 5524 5524 5525 5526 5527 5528 5530 5531 5534 5536 5539 5541 5543 5546 5548
5468 5469 5470 5471 5473 5473 5474 5477 5477 5478 5479 5481 5482 5484 5487 5490 5493 5496 5499 5502 5504 5507 5510 5513 5515 5517 5519 5520 5521 5521 5522 5523 5524 5526 5527 5527 5527 5526 5525 5524 5523 5522 5523 5525 5526 5527 5529 5531 5533 5535 5537 5539 5541 5543
5458 5462 5464 5465 5466 5466 5466 5468 5470 5471 5473 5475 5478 5479 5481 5485 5489 5492 5495 5499 5501 5504 5506 5509 5511 5514 5515 5517 5518 5519 5519 5520 5522 5523 5524 5525 5525 5525 5525 5524 5524 5523 5523 5523 5524 5525 5527 5528 5530 5531 5533 5535 5536 5538
5451 5455 5455 5458 5459 5459 5460 5460 5462 5464 5466 5468 5471 5471 5473 5476 5480 5485 5489 5493 5496 5499 5502 5505 5508 5510 5512 5513 5515 5516 5517 5518 5518 5519 5521 5521 5522 5522 5522 5522 5522 5522 5522 5522 5522 5524 5524 5525 5527 5528 5529 5531 5532 5533
5444 5446 5449 5451 5453 5454 5454 5454 5455 5457 5459 5461 5462 5464 5465 5469 5474 5478 5482 5486 5490 5493 5496 5500 5503 5506 5509 5510 5511 5513 5514 5515 5517 5518 5519 5519 5520 5520 5521 5521 5520 5519 5519 5519 5520 5521 5522 5522 5523 5524 5525 5526 5527 5528
5436 5439 5442 5445 5447 5449 5450 5451 5451 5452 5453 5455 5456 5457 5459 5462 5466 5471 5475 5479 5484 5487 5491 5495 5498 5502 5504 5505 5507 5509 5510 5512 5513 5515 5515 5516 5517 5517 5517 5518 5518 5518 5518 5518 5518 5518 5518 5518 5519 5519 5520 5521 5522 5523
5430 5433 5436 5439 5442 5444 5445 5447 5447 5447 5449 5450 5450 5451 5452 5455 5458 5462 5467 5472 5476 5480 5485 5490 5494 5496 5497 5499 5501 5503 5505 5507 5508 5510 5510 5511 5511 5511 5512 5512 5512 5512 5512 5512 5511 5511 5512 5513 5513 5513 5514 5514 5515 5516
5424 5427 5430 5433 5436 5438 5440 5441 5442 5443 5444 5444 5445 5445 5446 5448 5451 5455 5459 5463 5468 5475 5480 5482 5484 5485 5489 5492 5494 5496 5498 5500 5501 5502 5503 5504 5504 5504 5504 5504 5503 5503 5503 5503 5503 5503 5503 5502 5503 5503 5504 5505 5506 5507
5418 5422 5425 5427 5431 5434 5435 5436 5438 5438 5440 5439 5440 5440 5441 5442 5445 5448 5452 5456 5461 5464 5467 5471 5474 5478 5482 5485 5487 5488 5490 5491 5493 5494 5494 5494 5495 5495 5495 5495 5494 5494 5494 5495 5494 5495 5495 5495 5495 5495 5496 5496 5496 5496
5413 5416 5420 5423 5426 5429 5432 5431 5432 5432 5433 5434 5434 5435 5435 5436 5438 5442 5446 5450 5451 5453 5458 5462 5465 5469 5472 5475 5477 5478 5480 5482 5483 5484 5485 5485 5485 5485 5486 5487 5487 5487 5487 5488 5488 5487 5487 5487 5487 5487 5487 5487 5487 5487
5407 5412 5414 5418 5421 5424 5425 5426 5426 5427 5427 5427 5429 5429 5431 5431 5433 5435 5441 5444 5444 5447 5450 5453 5455 5458 5461 5463 5466 5469 5471 5472 5474 5475 5476 5477 5477 5477 5477 5478 5479 5479 5479 5479 5479 5479 5479 5479 5479 5478 5478 5477 5476 5476
5404 5406 5410 5413 5416 5418 5419 5420 5420 5420 5421 5421 5423 5424 5425 5426 5428 5430 5433 5436 5436 5440 5444 5446 5448 5451 5453 5456 5458 5460 5463 5465 5466 5467 5468 5469 5469 5469 5470 5470 5470 5471 5470 5470 5469 5469 5468 5467 5466 5465 5464 5463 5462 5461
5396 5400 5405 5408 5410 5411 5412 5413 5414 5415 5415 5415 5417 5418 5419 5421 5422 5424 5425 5426 5428 5433 5437 5440 5443 5445 5447 5449 5451 5454 5456 5457 5459 5460 5461 5461 5461 5461 5461 5461 5461 5461 5460 5459 5458 5456 5454 5453 5451 5450 5448 5446 5445 5444
5391 5396 5399 5400 5401 5402 5404 5405 5406 5407 5408 5408 5410 5411 5412 5414 5416 5418 5419 5421 5424 5427 5431 5434 5436 5439 5442 5444 5446 5448 5450 5451 5452 5453 5454 5454 5454 5453 5453 5451 5450 5449 5448 5447 5444 5442 5440 5437 5435 5432 5430 5427 5425 5425
5386 5389 5391 5392 5392 5392 5393 5396 5397 5398 5399 5400 5402 5403 5406 5408 5410 5411 5413 5415 5416 5420 5423 5427 5429 5432 5435 5437 5440 5442 5443 5444 5444 5444 5444 5444 5444 5444 5442 5441 5439 5437 5435 5432 5429 5426 5424 5420 5417 5414 5411 5408 5405 5402
5379 5380 5380 5380 5380 5380 5382 5384 5386 5388 5388 5389 5392 5395 5399 5402 5403 5405 5407 5409 5410 5412 5415 5419 5423 5425 5428 5430 5432 5433 5434 5434 5435 5435 5435 5434 5434 5433 5431 5429 5426 5423 5421 5417 5413 5410 5407 5403 5399 5394 5390 5385 5381 5378
5367 5366 5366 5367 5367 5367 5369 5369 5372 5374 5376 5379 5383 5388 5392 5395 5396 5398 5400 5402 5404 5406 5409 5412 5415 5418 5421 5423 5424 5425 5426 5426 5427 5427 5426 5425 5423 5421 5418 5416 5412 5409 5405 5401 5396 5390 5385 5381 5376 5370 5365 5360 5354 5349
5350 5350 5350 5351 5351 5353 5353 5355 5357 5361 5365 5370 5375 5381 5385 5388 5391 5392 5394 5396 5398 5401 5403 5405 5407 5410 5413 5415 5416 5417 5418 5418 5418 5417 5416 5415 5412 5409 5406 5403 5399 5394 5389 5383 5378 5371 5365 5358 5351 5343 5336 5331 5327 5324
5331 5332 5334 5335 5338 5340 5340 5342 5345 5351 5357 5362 5369 5374 5378 5382 5385 5387 5389 5391 5393 5395 5397 5400 5402 5404 5407 5409 5409 5410 5410 5410 5409 5408 5407 5404 5401 5398 5394 5389 5384 5378 5372 5365 5358 5350 5341 5333 5326 5321 5316 5311 5308 5305
5314 5317 5320 5322 5325 5328 5331 5333 5338 5345 5351 5358 5364 5369 5374 5377 5379 5381 5382 5385 5388 5390 5393 5395 5397 5399 5401 5401 5402 5403 5403 5402 5401 5399 5397 5394 5391 5387 5382 5376 5370 5363 5355 5346 5338 5330 5322 5314 5306 5301 5297 5295 5293 5289
Wind_Speed
42 39 46 48 50 47 38 33 28 27 29 29 30 24 18 21 19 16 14 17 24 24 23 21 17 12 11 8 8 6 6 6 5 5 7 9 12 14 15 15 15 14 14 14 15 15 15 14 13 12 13 13 14 13
45 38 39 41 43 39 36 35 29 28 28 28 30 26 21 21 19 21 16 19 25 27 25 23 20 19 17 10 12 11 8 5 4 4 5 7 10 12 14 14 16 15 17 18 18 19 19 17 18 17 14 14 15 15
52 46 36 30 37 38 39 36 28 30 30 27 28 28 27 25 24 22 20 20 23 35 31 25 22 16 18 15 12 13 11 8 5 4 5 5 6 9 10 11 12 14 15 17 18 18 18 18 17 17 17 17 16 17
74 52 40 32 34 40 40 31 31 30 31 29 31 29 30 24 29 29 27 26 27 31 35 33 27 21 16 18 16 14 12 9 7 6 6 6 5 5 6 7 10 12 13 17 19 18 17 17 18 17 17 19 19 19
68 59 40 34 35 34 29 26 31 33 32 30 32 32 28 27 29 31 30 28 29 33 34 38 34 30 22 19 19 16 13 14 12 11 10 10 10 11 11 9 12 12 14 16 20 16 15 18 18 18 20 20 19 21
68 61 38 31 25 25 29 27 34 34 29 33 33 33 30 26 24 23 26 28 28 32 29 42 40 34 27 26 22 18 19 15 15 18 17 16 19 20 15 14 19 18 17 17 22 18 15 17 17 19 21 21 21 20
67 52 33 26 25 29 33 28 29 33 35 31 35 34 31 27 25 24 26 27 28 29 29 36 43 35 28 21 21 19 19 20 21 22 21 22 23 27 23 15 20 24 20 20 21 20 17 16 18 20 21 22 22 22
67 44 32 27 25 23 25 29 27 26 28 31 35 32 31 28 28 26 26 29 30 30 32 33 39 33 24 24 21 22 23 25 24 23 22 24 25 27 21 18 24 24 21 20 23 23 20 20 18 21 22 22 23 23
61 33 30 21 26 24 24 23 22 26 27 30 30 28 24 20 19 17 20 24 28 31 32 33 32 25 22 23 23 24 24 23 22 22 24 25 22 20 18 20 23 24 22 19 21 23 23 23 21 21 23 23 24 24
52 31 25 19 19 17 22 22 21 22 23 25 13 10 6 2 4 11 23 28 27 25 29 29 24 20 19 21 23 24 23 23 22 20 22 23 18 20 21 18 16 22 25 26 27 27 25 24 22 21 23 24 25 25
44 31 25 25 20 17 21 20 21 19 18 13 3 10 21 21 22 17 21 23 23 23 27 25 23 18 19 17 18 19 20 19 17 17 19 13 13 15 16 19 17 16 19 22 24 25 24 22 22 21 22 24 25 26
45 33 28 28 21 14 18 18 23 18 16 11 12 12 8 10 12 13 17 16 19 21 19 18 18 13 8 9 13 15 15 16 14 13 11 8 9 11 13 15 18 18 18 17 18 21 24 23 21 21 23 23 25 26
45 33 28 26 27 14 14 18 23 21 18 11 15 16 15 14 11 14 18 17 19 18 19 17 14 11 7 5 8 11 13 13 11 8 6 7 9 11 12 15 16 18 20 19 18 18 19 19 18 19 21 21 23 23
33 25 23 26 27 32 20 20 19 21 17 9 11 20 21 21 18 16 17 17 13 16 17 16 13 13 9 6 9 10 14 12 9 6 6 7 7 7 5 4 9 12 14 16 16 15 13 15 14 13 15 17 18 21
26 23 23 26 27 26 27 28 23 22 21 18 11 18 26 24 21 18 16 15 15 17 20 17 12 12 9 9 8 10 11 12 9 7 7 7 3 4 6 8 5 3 6 7 9 10 12 13 12 13 14 14 13 16
22 19 24 24 26 24 23 28 30 29 28 23 17 14 26 29 26 22 19 18 19 21 20 17 14 11 10 9 8 6 6 8 9 10 8 7 6 4 3 2 1 3 5 7 7 10 15 16 15 14 14 15 15 16
20 21 21 19 17 20 18 19 23 26 25 22 19 19 24 33 32 30 24 22 21 23 23 18 15 14 10 9 8 8 6 5 4 4 6 6 5 5 4 4 3 1 6 9 13 13 14 15 14 15 16 18 16 17
22 23 16 19 18 15 12 13 14 14 18 19 19 20 24 32 36 35 33 26 23 26 26 22 19 16 12 10 8 7 7 6 5 5 5 5 5 6 6 6 7 6 5 3 4 8 12 13 13 15 16 18 19 19
22 23 17 14 16 11 9 10 13 13 14 15 18 21 24 28 35 37 37 34 30 27 30 26 24 20 18 16 14 12 12 11 11 10 11 11 11 12 12 12 12 13 13 13 12 12 12 13 14 15 17 19 22 23
21 23 23 21 18 15 12 10 11 14 13 14 15 17 22 26 31 37 38 39 36 35 33 30 25 21 21 21 20 18 16 15 14 15 17 18 18 20 21 22 23 23 23 23 23 24 24 24 23 22 21 21 23 24
24 25 26 19 16 14 14 14 14 12 15 13 12 15 17 24 26 29 36 41 41 37 34 33 31 31 30 28 27 26 25 23 24 26 27 27 27 28 28 30 30 30 30 29 26 25 25 26 26 28 31 31 30 29
25 24 25 18 16 13 13 14 16 17 15 17 15 13 15 19 24 26 27 29 33 39 41 40 38 36 35 34 33 33 33 33 34 35 34 33 33 32 31 26 22 21 16 17 20 20 17 18 20 22 23 23 24 26
29 27 27 22 17 14 12 14 16 18 18 17 19 14 14 16 21 24 24 20 23 32 34 37 38 38 38 38 38 38 37 38 37 37 35 30 26 25 25 25 25 24 24 22 23 22 23 24 25 25 26 26 26 27
28 30 28 23 18 17 15 14 16 19 23 21 19 19 15 15 18 22 21 23 26 24 22 22 25 28 32 35 36 36 36 34 29 24 24 23 23 24 23 21 21 22 23 23 24 24 26 29 31 32 33 33 33 34
26 33 32 25 19 17 18 18 19 20 23 24 21 20 20 17 15 17 21 25 30 26 24 23 23 23 22 22 23 23 24 26 26 25 25 25 24 23 23 22 22 22 24 27 29 31 34 36 38 38 40 40 40 40
27 29 22 23 24 24 25 26 25 22 23 26 24 21 22 18 14 14 22 29 32 29 25 25 24 23 22 22 22 23 24 24 24 23 24 24 24 24 26 27 28 28 30 32 34 37 40 42 44 45 46 46 47 47
26 23 22 23 26 27 28 29 30 28 25 25 25 25 23 20 15 15 20 27 30 30 28 26 25 25 24 23 23 23 23 24 24 25 25 26 27 28 28 28 30 32 36 39 42 43 44 46 47 47 48 50 50 50
24 23 22 26 27 29 30 32 34 32 30 28 29 28 24 21 16 16 18 24 27 29 30 30 29 26 24 23 23 24 25 25 26 26 26 26 28 29 30 30 33 36 39 42 43 45 46 47 49 50 52 53 55 56
26 27 30 33 36 40 42 42 40 37 33 33 33 31 25 22 19 16 17 21 25 27 28 28 28 28 28 27 25 24 23 24 24 26 27 28 29 30 32 35 38 40 42 44 47 49 50 51 52 54 56 58 60 61
36 38 41 42 45 47 46 47 42 38 36 35 35 31 27 25 21 17 18 20 23 24 25 25 26 26 25 25 24 23 24 25 26 27 28 29 31 33 36 39 41 43 46 48 49 51 54 55 57 58 60 62 65 67
44 45 47 49 49 49 49 45 39 35 36 36 35 31 28 25 20 18 18 20 21 22 23 24 25 24 23 24 24 23 24 26 26 27 29 31 33 35 38 40 43 45 47 50 52 53 55 60 64 64 59 54 48 45
50 51 52 53 51 48 42 36 34 34 35 36 34 29 28 23 19 17 17 20 20 20 21 20 20 21 22 22 21 22 23 24 25 27 29 32 34 36 39 42 44 46 49 51 57 62 64 57 51 48 47 44 43 43
32 35 38 39 37 31 27 28 30 33 35 35 30 27 24 19 16 18 19 18 18 17 16 16 17 17 17 17 18 19 21 22 24 27 29 32 35 37 40 42 44 48 55 57 53 50 53 52 46 38 34 34 37 36
Wind_Direction
316 294 291 293 296 300 303 304 302 302 305 310 318 317 285 275 277 290 271 247 231 231 231 229 229 243 255 255 235 200 173 173 174 176 193 203 208 212 215 215 216 218 220 224 228 237 246 245 243 243 239 240 235 226
324 309 301 298 296 299 300 299 296 296 300 308 317 319 286 262 255 267 275 243 230 226 229 239 236 225 238 247 224 212 207 219 214 223 215 210 213 217 223 226 228 233 234 238 239 241 243 245 245 245 243 241 232 221
339 328 313 303 300 298 297 298 295 294 298 306 308 312 306 273 255 247 256 251 230 227 232 236 235 230 230 231 223 219 220 224 233 231 222 221 220 218 225 229 234 238 236 238 239 239 243 245 245 245 246 241 232 226
349 342 321 295 275 282 290 293 299 296 298 303 307 306 305 283 261 257 246 243 237 222 225 227 226 229 229 233 229 228 229 232 241 244 233 227 232 239 244 249 253 245 246 244 247 246 249 250 244 241 235 235 230 226
345 342 331 301 284 285 292 295 297 302 301 302 309 307 298 288 278 269 258 247 234 227 220 218 219 226 236 240 234 231 235 248 245 251 256 261 268 270 276 277 273 269 255 247 244 243 248 247 240 238 232 229 227 227
336 339 329 303 289 288 277 283 295 298 301 309 305 304 298 293 277 267 255 249 240 225 218 219 217 227 235 241 230 241 246 252 251 254 262 273 273 276 276 275 275 271 264 258 248 239 240 251 239 236 231 230 223 221
324 336 324 301 291 275 288 291 294 301 302 302 305 302 299 290 279 265 250 242 235 225 220 221 214 218 222 229 232 243 246 252 262 259 261 264 267 273 280 277 264 271 261 250 251 241 240 251 246 237 233 232 228 226
326 332 311 285 280 292 288 293 299 304 303 309 310 303 299 292 282 266 249 235 224 217 215 207 204 208 219 231 243 247 252 255 252 253 255 260 265 272 279 269 258 255 255 247 241 241 245 251 251 242 236 235 231 227
324 323 303 303 300 291 290 285 293 304 311 317 311 308 305 296 278 249 227 206 193 190 188 187 192 204 216 230 242 247 244 240 244 258 259 261 264 267 266 265 257 252 253 248 243 245 253 256 252 243 236 235 233 228
320 315 295 286 291 291 295 285 295 305 321 320 309 322 343 45 132 143 140 144 162 176 178 179 188 207 224 238 229 229 235 243 256 251 253 262 265 254 259 270 264 253 247 242 243 249 253 253 250 240 233 233 233 229
311 305 284 261 297 289 282 272 284 300 322 319 228 119 112 108 118 140 155 161 165 169 173 187 199 222 219 218 226 234 246 253 240 248 259 256 257 258 251 252 253 254 246 240 240 245 246 252 249 242 232 229 231 231
298 292 280 281 269 284 286 276 277 289 300 314 206 177 159 127 131 153 166 164 166 164 172 191 191 184 198 227 238 242 239 235 245 258 258 265 264 269 263 255 249 251 246 237 243 248 248 249 240 239 230 230 232 230
295 283 276 268 276 269 279 269 271 279 289 307 232 210 195 191 175 170 173 173 177 181 191 176 178 192 203 238 245 236 236 240 257 255 271 278 291 287 274 256 249 245 239 245 253 249 251 237 234 236 231 230 227 233
282 272 271 264 272 274 257 256 262 270 273 282 257 218 209 206 199 190 182 179 182 184 185 187 195 197 194 226 228 238 234 240 247 257 275 289 317 328 346 281 247 245 243 252 246 245 231 225 224 228 233 235 239 240
263 261 273 270 267 270 261 255 255 263 276 269 263 231 218 216 212 209 204 200 199 196 205 206 204 204 215 224 235 238 240 238 244 252 252 270 329 2 58 55 19 262 237 247 241 231 222 221 226 234 236 228 239 249
245 256 271 259 265 266 264 257 255 263 263 266 267 243 226 223 223 221 215 218 213 204 209 213 217 223 227 223 219 221 209 212 222 234 233 237 245 264 287 350 78 159 230 241 250 243 237 236 227 237 239 242 239 241
234 261 248 254 268 267 273 260 253 259 261 262 255 240 232 222 221 223 218 220 220 213 214 213 213 222 225 230 227 233 234 227 227 225 237 246 261 269 284 292 289 233 181 208 227 233 220 219 229 245 249 246 235 233
239 244 236 243 248 259 264 263 246 246 243 247 237 235 234 227 224 223 219 218 218 214 213 211 211 215 212 213 216 224 232 233 236 243 258 269 278 288 300 309 320 328 322 306 239 219 229 240 247 244 238 237 244 258
236 235 227 237 246 246 251 261 248 240 243 240 236 239 236 229 227 228 225 220 220 219 217 215 218 220 224 227 228 233 241 250 258 268 275 276 277 279 282 288 294 296 294 292 292 290 286 273 259 250 243 241 242 245
228 240 226 229 241 245 246 253 264 259 243 246 246 248 239 229 229 229 229 229 225 226 223 220 224 228 232 233 238 243 249 259 274 286 284 281 282 285 287 290 289 287 289 288 285 282 280 274 268 266 263 262 259 257
229 244 240 228 238 247 253 248 252 271 251 249 252 251 247 232 228 231 233 233 232 229 230 228 237 240 239 242 246 250 258 267 276 282 288 286 282 282 285 288 287 287 284 282 277 275 275 273 271 267 266 264 263 263
234 245 225 214 223 239 258 261 251 258 263 255 255 250 253 241 230 228 229 235 237 234 232 234 239 243 246 249 253 258 263 267 272 279 282 279 276 279 282 278 279 280 266 273 283 277 270 272 274 271 269 269 269 268
234 234 218 220 229 244 252 267 262 260 259 255 256 249 250 250 236 228 227 230 231 234 234 234 237 241 244 247 250 256 262 267 270 273 273 269 265 264 263 267 270 269 269 273 277 277 277 279 280 279 276 275 275 275
228 224 221 226 233 240 249 261 268 262 259 260 261 255 250 255 245 229 220 223 232 231 228 229 232 235 239 243 247 252 255 258 256 251 255 255 263 266 263 259 260 264 269 275 279 282 283 283 280 278 275 273 273 274
231 228 228 232 239 243 247 259 272 270 261 258 259 262 252 250 256 239 220 222 232 230 228 228 229 228 229 232 235 238 243 248 252 252 251 257 264 264 264 267 272 277 281 283 286 287 287 286 283 280 277 275 275 275
228 230 239 250 252 250 256 265 271 269 264 261 256 257 252 253 262 243 224 221 229 230 230 233 235 234 235 237 240 242 243 248 252 254 257 262 267 271 275 278 280 282 284 284 286 286 286 285 284 283 281 279 278 277
231 234 242 250 254 258 261 264 270 267 261 254 252 254 248 250 259 246 229 227 229 231 231 233 236 238 240 242 244 246 250 253 258 261 264 266 270 274 278 281 284 288 290 289 288 286 285 284 283 283 283 282 279 277
243 242 250 252 255 260 264 266 269 269 259 252 245 247 246 243 256 252 241 231 229 230 233 235 235 236 237 240 245 251 256 259 262 265 269 273 278 281 284 288 290 289 288 288 289 289 287 287 286 286 284 283 282 281
249 256 256 257 263 271 272 271 270 270 256 244 239 238 237 240 249 247 242 236 238 232 231 236 241 242 246 249 253 255 259 263 268 272 277 280 283 285 288 290 289 289 290 290 289 288 288 288 288 288 287 286 284 283
259 255 257 262 269 272 271 270 267 259 244 234 229 231 232 236 245 241 238 237 236 240 241 238 238 243 249 254 258 263 266 269 273 278 282 285 288 291 291 292 292 293 294 294 294 295 295 293 291 290 290 289 288 287
253 254 256 261 266 269 267 265 256 242 230 225 220 225 227 232 243 238 235 235 234 236 239 240 242 244 248 253 258 264 269 273 277 282 286 289 291 293 296 298 298 298 299 299 298 297 298 299 299 297 295 292 289 285
249 252 256 259 261 264 262 250 236 223 216 213 214 219 221 231 240 234 230 228 231 233 235 238 243 247 250 256 263 268 272 276 282 287 291 295 299 301 300 301 303 304 303 304 306 305 303 302 301 298 294 288 284 282
237 239 242 246 249 246 240 228 215 208 205 207 212 215 222 233 231 224 231 225 227 229 232 234 238 246 253 258 264 272 278 285 292 296 300 301 301 304 307 307 308 311 312 310 308 307 307 304 301 296 290 287 288 290